EST,Max TemperatureF,Mean TemperatureF,Min TemperatureF,Max Dew PointF,MeanDew PointF,Min DewpointF,Max Humidity, Mean Humidity, Min Humidity, Max Sea Level PressureIn, Mean Sea Level PressureIn, Min Sea Level PressureIn, Max VisibilityMiles, Mean VisibilityMiles, Min VisibilityMiles, Max Wind SpeedMPH, Mean Wind SpeedMPH, Max Gust SpeedMPH,PrecipitationIn, CloudCover, Events, WindDirDegrees
2013-1-1,48,46,44,44,36,27,97,70,46,30.06,30.00,29.92,10,9,4,14,8,,0.19,7,Rain,242
2013-1-2,42,40,37,39,35,27,93,81,61,30.21,30.07,29.97,10,8,4,12,8,,0.22,8,Rain,20
2013-1-3,39,33,27,27,23,18,85,61,41,30.26,30.22,30.18,10,10,8,10,6,,0.00,6,,358
2013-1-4,46,37,28,28,25,23,89,64,40,30.26,30.21,30.14,10,9,6,14,7,,0.00,2,,249
2013-1-5,46,38,30,32,27,21,76,63,46,30.39,30.31,30.22,10,10,10,9,5,,0.00,4,,173
2013-1-6,50,44,37,37,35,32,89,74,59,30.26,30.15,30.06,10,10,9,9,5,,0.03,6,Rain,212
2013-1-7,48,40,32,36,30,27,89,67,44,30.46,30.35,30.15,10,10,10,18,6,20,0.00,1,,356
2013-1-8,57,42,28,45,36,26,93,80,57,30.49,30.43,30.39,10,9,5,10,2,,0.00,3,Fog,121
2013-1-9,68,52,36,50,43,35,97,76,47,30.43,30.37,30.31,10,7,2,15,4,17,0.00,3,Fog,252
2013-1-10,55,46,36,48,36,30,90,64,38,30.58,30.50,30.38,10,10,6,13,7,,0.00,4,,6
2013-1-11,60,48,35,59,49,32,96,87,74,30.50,30.27,30.12,10,9,4,13,4,,0.01,6,Rain,167
2013-1-12,60,54,48,59,54,49,100,96,88,30.17,30.14,30.10,10,3,0,13,6,,0.00,8,Fog,309
2013-1-13,64,55,46,60,54,46,100,95,81,30.17,30.12,30.07,10,4,0,9,5,,0.00,6,Fog,176
2013-1-14,69,58,48,60,56,47,100,88,68,30.20,30.13,30.09,10,10,7,17,9,24,0.00,6,Rain,247
2013-1-15,50,47,44,48,46,43,100,96,93,30.25,30.20,30.09,10,4,0,15,10,20,0.34,8,Fog-Rain,32
2013-1-16,52,47,42,51,44,41,100,96,87,30.08,30.02,29.96,10,4,0,14,6,,0.03,8,Fog,329
2013-1-17,48,42,36,47,43,32,100,92,75,30.09,30.03,29.98,10,4,2,21,8,32,0.91,8,Rain,37
2013-1-18,43,36,28,32,20,-11,87,56,17,30.55,30.36,30.01,10,10,3,21,13,30,0.12,3,Rain-Snow,345
2013-1-19,55,40,25,42,23,-8,89,53,22,30.52,30.35,30.13,10,10,10,15,4,21,0.00,0,,214
2013-1-20,62,53,44,39,35,29,76,54,39,30.12,30.01,29.91,10,10,10,18,11,29,0.00,2,,249
2013-1-21,55,47,39,40,32,22,63,54,42,30.10,29.97,29.82,10,10,10,18,8,29,0.00,1,,84
2013-1-22,39,33,26,28,12,-3,63,44,27,30.27,30.14,29.92,10,10,10,17,10,25,0.00,2,,315
2013-1-23,33,27,21,13,5,-2,66,39,26,30.38,30.27,30.12,10,10,10,14,7,22,0.00,5,,282
2013-1-24,36,30,25,27,15,-2,81,56,30,30.53,30.26,29.96,10,8,1,28,13,36,0.01,6,Snow,343
2013-1-25,30,24,19,27,18,7,100,71,46,30.51,30.29,30.09,10,7,0,10,5,,0.14,7,Fog-Snow,250
2013-1-26,33,27,21,28,24,18,93,83,72,30.43,30.24,30.09,10,8,6,10,5,,0.00,7,Fog,263
2013-1-27,37,32,27,27,20,17,82,59,43,30.61,30.54,30.44,10,10,7,14,7,,0.00,5,,12
2013-1-28,52,40,28,45,31,22,87,69,47,30.53,30.36,30.17,10,9,6,20,6,24,0.02,7,Rain,216
2013-1-29,66,58,50,51,48,43,96,75,58,30.17,30.13,30.09,10,10,7,18,12,22,0.00,4,,213
2013-1-30,75,66,57,61,57,48,81,72,57,30.07,29.85,29.50,10,10,9,28,15,47,0.00,7,,196
2013-1-31,70,54,37,62,39,17,94,58,28,29.99,29.62,29.33,10,9,1,34,25,66,0.31,5,Rain,249